Date String (YYYY-MM-DD hh:mm:ss) UTC,Instrument flags,absolute air pressure of the measurement (hPa),sample flow rate (lpm),inlet stack bypass flow (lpm),air temperature of the measurement (°C),ambient temperature measured by the external sensor (°C),aerosol sample conditioner tube jacket temperature (°C),OPC LED temperature (°C),internal box temperature (°C),relative humidity of the measurement (%),span deviation,mass concentration of particles derived from Lorenz-Mie calculation of OPC scattering (μg/m³),mass concentration of particles derived from Lorenz-Mie calculation of OPC scattering (μg/m³),mass concentration of particles derived from Lorenz-Mie calculation of OPC scattering (μg/m³)
DateTimeUTC,F1_M11,P_M11,Q1_M11,Q2_M11,T1_M11,T2_M11,T3_M11,T4_M11,T5_M11,U1_M11,ZSPAN_M11,X2_M11,X0_M11,X1_M11
2023-11-30 02:00:00,SystemResetWarning,0822.7,5.00,000.00,024.5,023.5,000.0,032.8,025.7,6.7,0000.0,0004.25,0008.73,0003.85
2023-11-30 02:01:00,SystemResetWarning,0822.6,5.00,000.00,024.5,023.5,000.0,032.8,025.7,6.6,0000.0,0004.29,0008.64,0003.89
2023-11-30 02:02:00,SystemResetWarning,0822.6,5.00,000.00,024.5,023.5,000.0,032.8,025.7,6.6,0000.0,0004.27,0008.58,0003.90
2023-11-30 02:03:00,SystemResetWarning,0822.7,5.00,000.00,024.5,023.5,000.0,032.8,025.7,6.4,0000.0,0004.26,0008.53,0003.90
2023-11-30 02:04:00,SystemResetWarning,0822.7,5.00,000.00,024.5,023.5,000.0,032.8,025.7,6.4,0000.0,0004.29,0008.85,0003.91
2023-11-30 02:05:00,SystemResetWarning,0822.7,5.00,000.00,024.5,023.5,000.0,032.8,025.7,6.3,0000.0,0004.28,0008.58,0003.91
2023-11-30 02:06:00,SystemResetWarning,0822.8,5.00,000.00,024.5,023.5,000.0,032.8,025.7,6.3,0000.0,0004.30,0008.57,0003.93
2023-11-30 02:07:00,SystemResetWarning,0822.8,5.01,000.00,024.5,023.5,000.0,032.8,025.6,6.3,0000.0,0004.30,0008.56,0003.93
2023-11-30 02:08:00,SystemResetWarning,0822.7,5.00,000.00,024.5,023.5,000.0,032.8,025.7,6.3,0000.0,0004.31,0008.17,0003.92
2023-11-30 02:09:00,SystemResetWarning,0822.8,5.00,000.00,024.5,023.5,000.0,032.8,025.7,6.3,0000.0,0004.30,0007.83,0003.92
2023-11-30 02:10:00,SystemResetWarning,0822.6,5.00,000.00,024.5,023.5,000.0,032.8,025.6,6.4,0000.0,0004.31,0007.81,0003.94
2023-11-30 02:11:00,SystemResetWarning,0822.8,5.00,000.00,024.5,023.5,000.0,032.8,025.6,6.4,0000.0,0004.30,0007.75,0003.95
2023-11-30 02:12:00,SystemResetWarning,0822.7,5.00,000.00,024.4,023.5,000.0,032.8,025.6,6.5,0000.0,0004.32,0007.75,0003.97
2023-11-30 02:13:00,SystemResetWarning,0822.7,5.00,000.00,024.4,023.5,000.0,032.8,025.6,6.5,0000.0,0004.37,0007.93,0004.01
2023-11-30 02:14:00,SystemResetWarning,0823.0,4.99,000.00,024.4,023.5,000.0,032.8,025.6,6.5,0000.0,0004.43,0008.13,0004.05
2023-11-30 02:15:00,SystemResetWarning,0822.8,4.99,000.00,024.4,023.5,000.0,032.8,025.6,6.4,0000.0,0004.43,0007.80,0004.07
2023-11-30 02:16:00,SystemResetWarning,0822.8,5.01,000.00,024.4,023.4,000.0,032.8,025.6,6.4,0000.0,0004.45,0007.91,0004.06
2023-11-30 02:17:00,SystemResetWarning,0822.7,5.01,000.00,024.4,023.4,000.0,032.8,025.6,6.3,0000.0,0004.46,0008.70,0004.05
2023-11-30 02:18:00,SystemResetWarning,0822.9,5.00,000.00,024.4,023.4,000.0,032.8,025.6,6.3,0000.0,0004.42,0008.61,0004.05
2023-11-30 02:19:00,SystemResetWarning,0822.9,4.99,000.00,024.4,023.4,000.0,032.8,025.6,6.3,0000.0,0004.40,0009.15,0004.04
2023-11-30 02:20:00,SystemResetWarning,0822.7,5.00,000.00,024.4,023.4,000.0,032.8,025.6,6.3,0000.0,0004.42,0009.21,0004.03
2023-11-30 02:21:00,SystemResetWarning,0822.7,5.01,000.00,024.4,023.5,000.0,032.7,025.6,6.3,0000.0,0004.41,0009.30,0004.01
2023-11-30 02:22:00,SystemResetWarning,0822.8,5.00,000.00,024.4,023.5,000.0,032.7,025.6,6.1,0000.0,0004.44,0009.48,0003.99
2023-11-30 02:23:00,SystemResetWarning,0822.7,4.99,000.00,024.4,023.5,000.0,032.7,025.6,6.2,0000.0,0004.46,0009.55,0003.98
2023-11-30 02:24:00,SystemResetWarning,0822.7,5.00,000.00,024.4,023.5,000.0,032.7,025.6,6.2,0000.0,0004.43,0009.43,0003.95
2023-11-30 02:25:00,SystemResetWarning,0822.7,5.01,000.00,024.4,023.5,000.0,032.7,025.6,6.5,0000.0,0004.41,0009.27,0003.95
2023-11-30 02:26:00,SystemResetWarning,0822.8,5.01,000.00,024.4,023.4,000.0,032.7,025.6,6.5,0000.0,0004.40,0009.21,0003.93
2023-11-30 02:27:00,SystemResetWarning,0822.8,4.99,000.00,024.4,023.4,000.0,032.7,025.6,6.4,0000.0,0004.42,0008.91,0003.94
2023-11-30 02:28:00,SystemResetWarning,0822.8,4.99,000.00,024.4,023.4,000.0,032.7,025.5,6.4,0000.0,0004.43,0008.25,0003.94
2023-11-30 02:29:00,SystemResetWarning,0822.7,5.00,000.00,024.4,023.4,000.0,032.7,025.6,6.4,0000.0,0004.50,0008.37,0003.96
2023-11-30 02:30:00,SystemResetWarning,0822.8,5.01,000.00,024.4,023.4,000.0,032.7,025.5,6.4,0000.0,0004.48,0007.71,0003.96
2023-11-30 02:31:00,SystemResetWarning,0822.7,5.01,000.00,024.4,023.4,000.0,032.7,025.5,6.4,0000.0,0004.41,0007.59,0003.91
2023-11-30 02:32:00,SystemResetWarning,0822.8,4.99,000.00,024.4,023.4,000.0,032.7,025.6,6.4,0000.0,0004.36,0007.49,0003.87
2023-11-30 02:33:00,SystemResetWarning,0822.8,4.99,000.00,024.3,023.4,000.0,032.7,025.5,6.4,0000.0,0004.31,0007.31,0003.84
2023-11-30 02:34:00,SystemResetWarning,0822.8,4.99,000.00,024.3,023.4,000.0,032.7,025.6,6.4,0000.0,0004.24,0007.24,0003.80
2023-11-30 02:35:00,SystemResetWarning,0822.7,5.01,000.00,024.3,023.4,000.0,032.7,025.6,6.4,0000.0,0004.19,0007.33,0003.77
2023-11-30 02:36:00,SystemResetWarning,0822.7,5.01,000.00,024.3,023.4,000.0,032.7,025.6,6.4,0000.0,0004.15,0007.44,0003.74
2023-11-30 02:37:00,SystemResetWarning,0822.8,5.00,000.00,024.3,023.4,000.0,032.7,025.6,6.4,0000.0,0004.11,0008.07,0003.73
2023-11-30 02:38:00,SystemResetWarning,0822.7,5.00,000.00,024.3,023.4,000.0,032.7,025.5,6.6,0000.0,0004.07,0008.47,0003.70
2023-11-30 02:39:00,SystemResetWarning,0822.7,5.00,000.00,024.3,023.4,000.0,032.7,025.5,6.6,0000.0,0004.05,0008.42,0003.70
2023-11-30 02:40:00,SystemResetWarning,0822.7,5.00,000.00,024.3,023.3,000.0,032.7,025.5,6.5,0000.0,0004.01,0008.33,0003.67
2023-11-30 02:41:00,SystemResetWarning,0822.7,5.00,000.00,024.3,023.3,000.0,032.7,025.5,6.6,0000.0,0004.04,0009.04,0003.69
2023-11-30 02:42:00,SystemResetWarning,0822.7,5.00,000.00,024.3,023.3,000.0,032.7,025.5,6.6,0000.0,0004.12,0009.26,0003.75
2023-11-30 02:43:00,SystemResetWarning,0822.7,5.00,000.00,024.3,023.3,000.0,032.7,025.5,6.6,0000.0,0004.16,0009.43,0003.77
2023-11-30 02:44:00,SystemResetWarning,0822.7,5.01,000.00,024.3,023.3,000.0,032.7,025.5,6.5,0000.0,0004.17,0009.61,0003.75
2023-11-30 02:45:00,SystemResetWarning,0822.7,5.01,000.00,024.2,023.3,000.0,032.7,025.5,6.5,0000.0,0004.18,0009.62,0003.76
2023-11-30 02:46:00,SystemResetWarning,0822.8,5.00,000.00,024.2,023.3,000.0,032.6,025.4,6.5,0000.0,0004.22,0009.53,0003.76
2023-11-30 02:47:00,SystemResetWarning,0822.7,5.00,000.00,024.2,023.3,000.0,032.6,025.5,6.6,0000.0,0004.24,0009.42,0003.77
2023-11-30 02:48:00,SystemResetWarning,0822.8,5.00,000.00,024.2,023.2,000.0,032.6,025.5,6.6,0000.0,0004.24,0008.77,0003.77
2023-11-30 02:49:00,SystemResetWarning,0822.7,5.00,000.00,024.2,023.2,000.0,032.6,025.4,6.6,0000.0,0004.20,0008.04,0003.76
2023-11-30 02:50:00,SystemResetWarning,0822.7,5.00,000.00,024.2,023.2,000.0,032.6,025.4,6.6,0000.0,0004.18,0008.07,0003.74
2023-11-30 02:51:00,SystemResetWarning,0822.7,5.00,000.00,024.2,023.2,000.0,032.6,025.4,6.6,0000.0,0004.16,0008.04,0003.73
2023-11-30 02:52:00,SystemResetWarning,0822.7,5.00,000.00,024.2,023.2,000.0,032.6,025.5,6.6,0000.0,0004.15,0007.47,0003.71
2023-11-30 02:53:00,SystemResetWarning,0822.7,5.00,000.00,024.2,023.2,000.0,032.6,025.4,6.6,0000.0,0004.12,0007.17,0003.70
2023-11-30 02:54:00,SystemResetWarning,0822.9,5.00,000.00,024.2,023.2,000.0,032.6,025.4,6.6,0000.0,0004.13,0007.14,0003.72
2023-11-30 02:55:00,SystemResetWarning,0822.6,5.01,000.00,024.2,023.2,000.0,032.6,025.4,6.6,0000.0,0004.15,0007.10,0003.77
2023-11-30 02:56:00,SystemResetWarning,0822.7,5.00,000.00,024.2,023.1,000.0,032.6,025.4,6.7,0000.0,0004.18,0007.28,0003.82
2023-11-30 02:57:00,SystemResetWarning,0822.6,5.00,000.00,024.2,023.1,000.0,032.6,025.3,6.7,0000.0,0004.21,0008.13,0003.85
2023-11-30 02:58:00,SystemResetWarning,0822.6,5.00,000.00,024.1,023.1,000.0,032.6,025.3,6.7,0000.0,0004.26,0008.41,0003.89
2023-11-30 02:59:00,SystemResetWarning,0822.7,5.00,000.00,024.1,023.1,000.0,032.5,025.3,6.6,0000.0,0004.33,0008.58,0003.94
